{"data":{"norad_id":64497,"epoch":"2026-09-20T06:23:11.825376Z","epoch_age_seconds":151870,"freshness":"FRESH","line1":"1 64497U 25133AB  26263.26610909  .00016346  00000+0  49383-3 0  9995","line2":"2 64497  53.1595 286.9927 0001483  88.3652 271.7520 15.34402284 71062","mean_motion":15.34402284,"eccentricity":0.0001483,"inclination_deg":53.1595,"raan_deg":286.9927,"arg_perigee_deg":88.3652,"mean_anomaly_deg":271.752,"bstar":0.00049383,"rev_number":7106,"period_min":93.847618386366,"perigee_km":461.68195608531,"apogee_km":463.71094728708,"semimajor_km":6840.8334516862,"source":"CELESTRAK","updated_at":"2026-09-21T09:00:35.363100Z"}}